Location: *
(42.0175°N, 9.4056°E)
Time: 13:42:34
(UTC+00:00)

ASTEX 1 - Pass Details

Date: 25 August 2019
Orbit: 719 x 745 km, 92.7° (Epoch: 22 September)

Event Time Altitude Azimuth Distance (km) Brightness Sun altitude
Rises 19:28:41 0° 11° (N) 3,169 6.9 -14.6°
Reaches altitude 10° 19:31:04 10° 17° (NNE) 2,238 6.1 -15.0°
Maximum altitude 19:35:51 49° 92° (E) 939 3.6 -15.8°
Enters shadow 19:39:02 20° 159° (SSE) 1,639 4.8 -16.3°
